#timestamp,LO_Frequency,Hit,StdDev 
1599300015.0,286046999.3,N
1599300015.9,286046999.3,N
1599300035.8,286046999.2,N
1599300055.6,286046997.1,N
1599300075.4,286046999.5,N
1599300095.3,286046997.5,N
1599300115.1,286046998.7,N
1599300135.9,286047001.2,N
1599300155.7,286047001.1,N
1599300175.5,286047000.8,N
1599300195.4,286047002.3,N
1599300215.2,286047002.7,N
1599300235.1,286047002.0,N
1599300236.0,286047002.0,N
1599300255.8,286047001.6,N
1599300275.6,286047002.3,N
1599300295.5,286047002.4,N
1599300315.3,286047001.9,N
1599300335.1,286047002.6,N
1599300355.9,286047000.4,N
1599300375.7,286046998.1,N
1599300395.6,286047000.0,N
1599300415.4,286046996.9,N
1599300435.2,286047001.2,N
1599300455.1,286046997.3,N
1599300456.0,286046997.3,N
1599300475.8,286046998.9,N
1599300495.7,286046997.2,N
1599300515.5,286046995.0,N
1599300535.3,286046997.3,N
1599300555.2,286046999.4,N
1599300575.9,286046998.8,N
1599300595.7,286047001.2,N
1599300615.6,286047001.9,N
1599300635.4,286047004.3,N
1599300655.3,286047002.1,N
1599300675.1,286047002.2,N
1599300676.0,286047002.2,N
1599300695.8,286047001.8,N
1599300715.7,286047001.9,N
1599300735.5,286047001.6,N
1599300755.3,286047000.0,N
1599300775.2,286047000.2,N
1599300795.0,286047002.7,N
1599300795.9,286047002.7,N
1599300815.8,286046999.8,N
1599300835.6,286047000.1,N
1599300855.4,286047001.2,N
1599300875.3,286047001.2,N
1599300895.1,286047000.0,N
1599300915.9,286047000.2,N
1599300935.7,286047000.5,N
1599300955.5,286047000.1,N
1599300975.4,286046998.9,N
1599300995.2,286046999.6,N
1599301015.0,286046998.5,N
1599301015.9,286046998.5,N
1599301035.8,286047000.0,N
1599301055.6,286047001.5,N
1599301075.5,286047001.1,N
1599301095.3,286047002.4,N
1599301115.1,286047002.1,N
1599301135.9,286047001.0,N
1599301155.7,286047002.6,N
1599301175.5,286047000.4,N
1599301195.4,286046999.5,N
1599301215.2,286046998.3,N
1599301235.1,286046999.1,N
1599301236.0,286046999.1,N
1599301255.8,286046997.3,N
1599301275.6,286046997.7,N
1599301295.5,286046999.5,N
1599301315.3,286047002.5,N
1599301335.2,286046999.7,N
1599301355.9,286046999.1,N
1599301375.7,286046993.7,Y
1599301395.6,286046995.2,P
1599301415.4,286046997.1,N
1599301435.2,286046994.9,N
1599301455.1,286046994.7,N
1599301456.0,286046994.7,N
1599301475.8,286046990.2,Y
1599301495.7,286046994.2,P
1599301515.5,286046991.9,P
1599301535.3,286046992.7,P
1599301555.2,286046989.5,Y
1599301575.0,286046994.6,P
1599301575.9,286046994.6,P
1599301595.8,286046990.7,P
1599301615.6,286046991.6,Y
1599301635.4,286046993.8,P
1599301655.3,286046996.4,P
1599301675.1,286046995.8,P
1599301695.9,286046995.5,Y
1599301715.7,286046998.8,P
1599301735.5,286046999.5,N
1599301755.4,286046996.7,N
1599301775.2,286046995.3,N
1599301795.0,286046996.3,N
1599301796.0,286046996.3,N
1599301815.8,286046994.6,Y
1599301835.6,286046995.8,P
1599301855.5,286046991.8,P
1599301875.3,286046988.6,P
1599301895.1,286046987.0,Y
1599301915.9,286046994.6,P
1599301935.7,286046994.4,P
1599301955.6,286046992.0,P
1599301975.4,286046991.1,Y
1599301995.2,286046993.8,P
1599302015.1,286046992.2,P
1599302016.0,286046992.2,P
1599302035.8,286046990.8,Y
1599302055.7,286046997.7,P
1599302075.5,286046994.0,N
1599302095.3,286046992.2,P
1599302115.2,286046990.4,Y
1599302135.0,286046993.9,P
1599302135.9,286046993.9,P
1599302155.8,286046993.0,P
1599302175.6,286046989.5,Y
1599302195.4,286046990.1,P
1599302215.3,286046988.5,P
1599302235.1,286046990.0,P
1599302255.9,286046991.6,Y
1599302275.7,286046999.7,P
1599302295.5,286047003.1,N
1599302315.4,286047003.2,N
1599302335.2,286047005.8,N
1599302355.0,286047005.7,N
1599302355.9,286047005.7,N
1599302375.8,286047005.8,N
1599302395.6,286047002.4,N
1599302415.5,286046998.4,N
1599302435.3,286046996.5,N
1599302455.1,286046994.9,N
1599302475.9,286046994.0,N
1599302495.7,286046994.8,N
1599302515.5,286046990.9,N
1599302535.4,286046987.9,N
1599302555.2,286046983.9,N
1599302575.1,286046980.5,N
1599302576.0,286046980.5,N
1599302595.8,286046981.6,N
1599302615.6,286046977.4,N
1599302635.5,286046978.3,N
1599302655.3,286046976.6,N
1599302675.2,286046977.5,N
1599302695.9,286046976.2,N
1599302715.7,286046975.4,N
1599302735.6,286046972.7,N
1599302755.4,286046973.6,N
1599302775.2,286046971.7,N
1599302795.1,286046972.7,N
1599302796.0,286046972.7,N
1599302815.8,286046973.8,N
1599302835.7,286046973.9,N
1599302855.5,286046971.4,N
1599302875.3,286046972.5,N
1599302895.2,286046971.1,N
1599302915.0,286046973.9,N
1599302915.9,286046973.9,N
1599302935.7,286046972.2,N
1599302955.6,286046975.6,N
1599302975.4,286046970.9,Y
1599302995.3,286046994.3,P
1599303015.1,286046990.3,N
1599303035.8,286046988.7,N
1599303055.7,286046986.9,N
1599303075.5,286046988.4,N
1599303095.4,286046985.0,Y
1599303115.2,286046997.6,P
1599303135.0,286046993.7,N
1599303135.9,286046993.7,N
1599303155.8,286046992.2,N
1599303175.6,286046992.3,N
1599303195.4,286046993.6,N
1599303215.3,286046992.3,N
1599303235.1,286046993.1,N
1599303255.9,286046990.3,Y
1599303275.7,286047001.2,P
1599303295.5,286046996.5,N
1599303315.4,286046997.7,N
1599303335.2,286046996.2,N
1599303355.1,286046995.5,N
1599303356.0,286046995.5,N
1599303375.8,286046993.3,N
1599303395.6,286046995.5,N
1599303415.5,286046993.6,N
1599303435.3,286046994.2,N
1599303455.2,286046993.9,N
1599303475.9,286046993.4,Y
1599303495.7,286046996.6,P
1599303515.6,286046999.3,N
1599303535.4,286047000.7,N
1599303555.2,286047001.7,N
1599303575.1,286046999.8,N
1599303576.0,286046999.8,N
1599303595.8,286046998.7,N
